Location: Bremen
(53.0796°N, 8.8241°E)
Time: 23:28:03
(UTC+01:00)

ISS - Pass Details

Date: 12 February 2018
Orbit: 402 x 407 km, 51.6° (Epoch: 23 February)

Event Time Altitude Azimuth Distance (km) Brightness Sun altitude
Rises 18:31:48 0° 278° (W) 2,321 1.7 -9.7°
Reaches altitude 10° 18:34:30 10° 254° (WSW) 1,458 0.6 -10.1°
Maximum altitude 18:36:27 15° 217° (SW) 1,191 -0.8 -10.4°
Drops below altitude 10° 18:38:24 10° 180° (S) 1,454 -0.9 -10.7°
Sets 18:41:05 0° 156° (SSE) 2,310 -0.2 -11.1°
